Location: ?????????
(55.6553°N, 38.9075°E)
Time: 01:41:32
(UTC+00:00)

COSMOS 2455 - Visible Passes

Search period start: 22 January 2020 00:00
Search period end: 01 February 2020 00:00
Orbit: 903 x 907 km, 67.1° (Epoch: 21 January)

Date Brightness Start Highest point End Pass type
(mag) Time Alt. Az. Time Alt. Az. Time Alt. Az.
22 Jan 5.4 01:22:08 10° SE 01:25:40 16° ESE 01:29:14 10° ENE visible
22 Jan 3.2 03:04:37 10° SSW 03:10:33 65° SE 03:16:32 10° NE visible
22 Jan 3.2 04:51:03 10° WSW 04:56:49 45° NNW 05:02:37 10° NE visible
23 Jan 5.0 01:25:05 10° SSE 01:29:25 21° ESE 01:33:46 10° ENE visible
23 Jan 2.9 03:08:32 10° SW 03:14:33 79° SE 03:20:36 10° NE visible
24 Jan 4.6 01:30:09 18° SSE 01:33:13 27° ESE 01:38:08 10° NE visible
24 Jan 2.8 03:13:21 14° SW 03:18:35 86° NW 03:24:39 10° NE visible
25 Jan 4.2 01:35:00 27° SSE 01:37:03 33° ESE 01:42:23 10° NE visible
25 Jan 2.8 03:18:12 19° SW 03:22:38 73° NW 03:28:42 10° NE visible
26 Jan 3.8 01:39:38 37° SSE 01:40:56 42° ESE 01:46:33 10° NE visible
26 Jan 2.9 03:22:49 22° WSW 03:26:44 61° NW 03:32:45 10° NE visible
27 Jan 5.5 00:00:56 12° E 00:00:56 12° E 00:02:28 10° ENE visible
27 Jan 3.4 01:44:07 49° SE 01:44:50 52° ESE 01:50:40 10° NE visible
27 Jan 3.0 03:27:17 23° WSW 03:30:53 52° NW 03:36:48 10° NE visible
28 Jan 5.3 00:05:18 15° E 00:05:18 15° E 00:07:27 10° ENE visible
28 Jan 3.0 01:48:28 64° SE 01:48:47 65° SE 01:54:45 10° NE visible
28 Jan 3.2 03:31:38 23° W 03:35:03 45° NNW 03:40:51 10° NE visible
29 Jan 5.1 00:09:34 18° E 00:09:34 18° E 00:12:00 10° ENE visible
29 Jan 2.8 01:52:43 79° SE 01:52:47 79° SE 01:58:49 10° NE visible
29 Jan 3.4 03:35:53 22° W 03:39:15 40° NNW 03:44:56 10° NE visible
30 Jan 5.0 00:13:45 21° ENE 00:13:45 21° ENE 00:16:21 10° ENE visible
30 Jan 2.7 01:56:54 86° NNW 01:56:54 86° NNW 02:02:53 10° NE visible
30 Jan 3.6 03:40:03 20° WNW 03:43:29 36° NNW 03:49:02 10° NE visible
31 Jan 4.8 00:17:52 24° ENE 00:17:52 24° ENE 00:20:36 10° NE visible
31 Jan 2.8 02:01:01 73° NNW 02:01:01 73° NNW 02:06:56 10° NE visible
31 Jan 3.7 03:44:10 19° WNW 03:47:44 33° NNW 03:53:10 10° NE visible
